Weather in Ishalino

Russia / Chelyabinsk Oblast     55°24′51″N   61°00′11″E
temp.,
°C
wind,
m/s
gust,
m/s
humid.,
%
clouds,
%
prec.,
mm/h
press.,
hPa
HPBL,
m
10 may, mon
mon1023:00+13nne355725 0.1 101862
02:00+12ne346296 0.0 101960
05:00+10ne34737 0.0 102147
08:00+14ene465515 0.0 1022372
11:00+19ne56375 0.0 10221312
14:00+20ene67310 0.0 10221939
17:00+20ene66280 0.0 10231808
20:00+16ene47404 0.0 1024159
11 may, tue
tue1123:00+11e34453 0.0 102648
02:00+9e22480 0.0 102711
05:00+8wsw11521 0.0 102810
08:00+13sse12415 0.0 1028252
11:00+18sse2229100 0.0 10291233
14:00+20s1126100 0.0 10281531
17:00+20sw1126100 0.0 10281454
20:00+17ssw1135100 0.0 102911
12 may, wed
wed1223:00+14wsw333942 0.0 102919
02:00+12wsw33464 0.0 102936
05:00+11w334715 0.0 102927
08:00+16nw2440100 0.0 1029184
11:00+20nw343371 0.0 1029654
14:00+24wnw463339 0.0 10272607
17:00+23nne453391 0.0 10271462
20:00+20n334042 0.0 102736
13 may, thu
thu1323:00+15n114997 0.0 102811
02:00+14nw225321 0.0 102815
05:00+12nnw3364100 0.0 102924
08:00+17n345856 0.0 1029309
11:00+21n344438 0.0 10281354
14:00+24nne343555 0.0 10271848
17:00+25ne353010 0.0 10262258
20:00+22ene22427 0.0 102612
14 may, fri
fri1423:00+18w334952 0.0 102721
02:00+16w335731 0.0 102732
05:00+15wnw226236 0.0 102813
08:00+20wnw22495 0.0 1028202
11:00+25wsw233432 0.0 10271782
14:00+28wsw35265 0.0 10252608
17:00+28wnw66275 0.0 10242801
20:00+23nw48433 0.0 1024175